| time (UTC) | temp C | wind direction | speed KPH | gust KPH | rain 1hr cm | rain 24hr cm | rain mn cm | humidity % | barometer mb |
| 20260504221725 | 27 | 338 | 11.3 | 9.7 | 0.00 | 0.00 | 0.00 | ||
| 20260504221227 | 27 | 357 | 6.4 | 8.0 | 0.00 | 0.00 | 0.00 | ||
| 20260504220728 | 27 | 153 | 1.6 | 4.8 | 0.00 | 0.00 | 0.00 | ||
| 20260504220230 | 28 | 349 | 4.8 | 8.0 | 0.00 | 0.00 | 0.00 | ||
| 20260504215731 | 28 | 353 | 0.0 | 0.0 | 0.00 | 0.00 | 0.00 | ||
| 20260504215233 | 30 | 353 | 0.0 | 0.0 | 0.00 | 0.00 | 0.00 | ||
| 20260504214734 | 29 | 353 | 0.0 | 0.0 | 0.00 | 0.00 | 0.00 | ||
| 20260504214236 | 28 | 353 | 0.0 | 0.0 | 0.00 | 0.00 | 0.00 | ||
| 20260504213737 | 28 | 353 | 0.0 | 0.0 | 0.00 | 0.00 | 0.00 | ||
| 20260504213239 | 30 | 353 | 0.0 | 0.0 | 0.00 | 0.00 | 0.00 | ||
| 20260504212740 | 30 | 353 | 0.0 | 0.0 | 0.00 | 0.00 | 0.00 | ||
| 20260504212241 | 30 | 353 | 0.0 | 0.0 | 0.00 | 0.00 | 0.00 | ||
| 20260504211743 | 30 | 353 | 0.0 | 0.0 | 0.00 | 0.00 | 0.00 | ||
| 20260504211244 | 30 | 354 | 1.6 | 0.0 | 0.00 | 0.00 | 0.00 | ||
| 20260504210746 | 31 | 328 | 0.0 | 6.4 | 0.00 | 0.00 | 0.00 | ||
| 20260504210247 | 30 | 359 | 0.0 | 0.0 | 0.00 | 0.00 | 0.00 | ||
| 20260504205749 | 30 | 359 | 0.0 | 0.0 | 0.00 | 0.00 | 0.00 | ||
| 20260504204752 | 31 | 359 | 0.0 | 0.0 | 0.00 | 0.00 | 0.00 | ||
| 20260504204253 | 30 | 359 | 0.0 | 0.0 | 0.00 | 0.00 | 0.00 | ||
| 20260504203754 | 30 | 80 | 0.0 | 8.0 | 0.00 | 0.00 | 0.00 | ||
| 20260504203256 | 30 | 20 | 0.0 | 0.0 | 0.00 | 0.00 | 0.00 | ||
| 20260504202757 | 30 | 8 | 0.0 | 4.8 | 0.00 | 0.00 | 0.00 | ||
| 20260504202259 | 30 | 14 | 4.8 | 6.4 | 0.00 | 0.00 | 0.00 | ||
| 20260504201801 | 30 | 325 | 0.0 | 0.0 | 0.00 | 0.00 | 0.00 | ||
| 20260504201302 | 30 | 352 | 0.0 | 8.0 | 0.00 | 0.00 | 0.00 | ||
| 20260504200804 | 30 | 311 | 8.0 | 8.0 | 0.00 | 0.00 | 0.00 | ||
| 20260504200305 | 30 | 6 | 0.0 | 8.0 | 0.00 | 0.00 | 0.00 | ||
| 20260504195308 | 30 | 301 | 0.0 | 0.0 | 0.00 | 0.00 | 0.00 | ||
| 20260504194311 | 30 | 342 | 1.6 | 12.9 | 0.00 | 0.00 | 0.00 | ||
| 20260504193314 | 30 | 359 | 0.0 | 0.0 | 0.00 | 0.00 | 0.00 | ||
| 20260504192816 | 30 | 150 | 9.7 | 0.0 | 0.00 | 0.00 | 0.00 | ||
| 20260504192317 | 30 | 170 | 4.8 | 9.7 | 0.00 | 0.00 | 0.00 | ||
| 20260504191818 | 28 | 3 | 0.0 | 0.0 | 0.00 | 0.00 | 0.00 | ||
| 20260504191320 | 30 | 0 | 1.6 | 8.0 | 0.00 | 0.00 | 0.00 | ||
| 20260504190821 | 29 | 332 | 0.0 | 0.0 | 0.00 | 0.00 | 0.00 | ||
| 20260504185822 | 29 | 311 | 0.0 | 0.0 | 0.00 | 0.00 | 0.00 | ||
| 20260504185323 | 28 | 311 | 0.0 | 0.0 | 0.00 | 0.00 | 0.00 | ||
| 20260504184825 | 28 | 342 | 3.2 | 8.0 | 0.00 | 0.00 | 0.00 | ||
| 20260504184327 | 30 | 273 | 0.0 | 0.0 | 0.00 | 0.00 | 0.00 | ||
| 20260504182831 | 28 | 273 | 0.0 | 0.0 | 0.00 | 0.00 | 0.00 | ||
| 20260504182332 | 29 | 325 | 3.2 | 4.8 | 0.00 | 0.00 | 0.00 | ||
| 20260504181335 | 28 | 346 | 0.0 | 6.4 | 0.00 | 0.00 | 0.00 | ||
| 20260504180836 | 28 | 14 | 12.9 | 8.0 | 0.00 | 0.00 | 0.00 | ||
| 20260504180338 | 28 | 359 | 0.0 | 0.0 | 0.00 | 0.00 | 0.00 | ||
| 20260504175839 | 28 | 359 | 1.6 | 0.0 | 0.00 | 0.00 | 0.00 | ||
| 20260504175341 | 27 | 10 | 8.0 | 0.0 | 0.00 | 0.00 | 0.00 | ||
| 20260504174842 | 30 | 10 | 0.0 | 0.0 | 0.00 | 0.00 | 0.00 | ||
| 20260504174343 | 28 | 10 | 11.3 | 0.0 | 0.00 | 0.00 | 0.00 | ||
| 20260504173845 | 28 | 330 | 9.7 | 14.5 | 0.00 | 0.00 | 0.00 | ||
| 20260504173346 | 27 | 42 | 6.4 | 11.3 | 0.00 | 0.00 | 0.00 | ||
| 20260504172848 | 28 | 322 | 0.0 | 0.0 | 0.00 | 0.00 | 0.00 | ||
| 20260504172349 | 27 | 347 | 4.8 | 6.4 | 0.00 | 0.00 | 0.00 | ||
| 20260504171851 | 27 | 314 | 3.2 | 8.0 | 0.00 | 0.00 | 0.00 | ||
| 20260504171352 | 26 | 359 | 0.0 | 8.0 | 0.00 | 0.00 | 0.00 | ||
| 20260504170855 | 26 | 18 | 4.8 | 12.9 | 0.00 | 0.00 | 0.00 | ||
| 20260504170355 | 26 | 297 | 3.2 | 8.0 | 0.00 | 0.00 | 0.00 | ||
| 20260504160414 | 24 | 38 | 4.8 | 8.0 | 0.00 | 0.00 | 0.00 | ||
| 20260504150931 | 20 | 353 | 12.9 | 12.9 | 0.00 | 0.00 | 0.00 | ||
| 20260504140949 | 15 | 342 | 14.5 | 17.7 | 0.00 | 0.00 | 0.00 | ||
| 20260504140451 | 15 | 359 | 12.9 | 17.7 | 0.00 | 0.00 | 0.00 | ||
| 20260504130502 | 12 | 155 | 0.0 | 0.0 | 0.00 | 0.00 | 0.00 | ||
| 20260504110525 | 10 | 155 | 0.0 | 0.0 | 0.00 | 0.00 | 0.00 | ||
| 20260504100545 | 10 | 155 | 0.0 | 0.0 | 0.00 | 0.00 | 0.00 | ||
| 20260504081616 | 13 | 155 | 0.0 | 0.0 | 0.00 | 0.00 | 0.00 | ||
| 20260504081117 | 13 | 155 | 0.0 | 0.0 | 0.00 | 0.00 | 0.00 | ||
| 20260504080619 | 13 | 155 | 0.0 | 0.0 | 0.00 | 0.00 | 0.00 | ||
| 20260504080121 | 13 | 155 | 0.0 | 0.0 | 0.00 | 0.00 | 0.00 | ||
| 20260504070139 | 14 | 155 | 0.0 | 0.0 | 0.00 | 0.00 | 0.00 | ||
| 20260504060157 | 15 | 155 | 0.0 | 0.0 | 0.00 | 0.00 | 0.00 | ||
| 20260504050714 | 16 | 186 | 0.0 | 0.0 | 0.00 | 0.00 | 0.00 | ||
| 20260504050215 | 16 | 186 | 1.6 | 0.0 | 0.00 | 0.00 | 0.00 | ||
| 20260504045717 | 17 | 158 | 0.0 | 4.8 | 0.00 | 0.00 | 0.00 | ||
| 20260504045218 | 16 | 100 | 0.0 | 0.0 | 0.00 | 0.00 | 0.00 | ||
| 20260504044720 | 17 | 100 | 0.0 | 0.0 | 0.00 | 0.00 | 0.00 | ||
| 20260504044221 | 17 | 93 | 0.0 | 0.0 | 0.00 | 0.00 | 0.00 | ||
| 20260504043723 | 17 | 100 | 0.0 | 0.0 | 0.00 | 0.00 | 0.00 | ||
| 20260504043224 | 17 | 118 | 0.0 | 0.0 | 0.00 | 0.00 | 0.00 | ||
| 20260504042726 | 17 | 101 | 0.0 | 0.0 | 0.00 | 0.00 | 0.00 | ||
| 20260504042227 | 17 | 101 | 0.0 | 0.0 | 0.00 | 0.00 | 0.00 | ||
| 20260504041729 | 17 | 155 | 0.0 | 0.0 | 0.00 | 0.00 | 0.00 | ||
| 20260504041231 | 17 | 155 | 0.0 | 0.0 | 0.00 | 0.00 | 0.00 | ||
| 20260504040732 | 17 | 155 | 0.0 | 0.0 | 0.00 | 0.00 | 0.00 | ||
| 20260504040234 | 17 | 155 | 0.0 | 0.0 | 0.00 | 0.00 | 0.00 | ||
| 20260504035735 | 17 | 155 | 0.0 | 0.0 | 0.00 | 0.00 | 0.00 | ||
| 20260504035237 | 17 | 155 | 0.0 | 0.0 | 0.00 | 0.00 | 0.00 | ||
| 20260504034738 | 17 | 155 | 0.0 | 0.0 | 0.00 | 0.00 | 0.00 | ||
| 20260504034240 | 17 | 155 | 0.0 | 0.0 | 0.00 | 0.00 | 0.00 | ||
| 20260504033742 | 17 | 155 | 0.0 | 0.0 | 0.00 | 0.00 | 0.00 | ||
| 20260504033243 | 18 | 155 | 0.0 | 0.0 | 0.00 | 0.00 | 0.00 | ||
| 20260504032745 | 18 | 155 | 0.0 | 0.0 | 0.00 | 0.00 | 0.00 | ||
| 20260504032246 | 18 | 155 | 0.0 | 0.0 | 0.00 | 0.00 | 0.00 | ||
| 20260504031748 | 18 | 155 | 0.0 | 0.0 | 0.00 | 0.00 | 0.00 | ||
| 20260504031250 | 18 | 155 | 0.0 | 0.0 | 0.00 | 0.00 | 0.00 | ||
| 20260504030751 | 18 | 155 | 0.0 | 0.0 | 0.00 | 0.00 | 0.00 | ||
| 20260504030253 | 18 | 155 | 0.0 | 0.0 | 0.00 | 0.00 | 0.00 | ||
| 20260504025754 | 19 | 155 | 0.0 | 0.0 | 0.00 | 0.00 | 0.00 | ||
| 20260504025256 | 19 | 155 | 0.0 | 0.0 | 0.00 | 0.00 | 0.00 | ||
| 20260504024757 | 19 | 155 | 0.0 | 0.0 | 0.00 | 0.00 | 0.00 | ||
| 20260504024259 | 19 | 155 | 0.0 | 0.0 | 0.00 | 0.00 | 0.00 | ||
| 20260504023801 | 20 | 155 | 0.0 | 0.0 | 0.00 | 0.00 | 0.00 | ||
| 20260504023302 | 21 | 155 | 0.0 | 0.0 | 0.00 | 0.00 | 0.00 | ||
| 20260504022804 | 20 | 155 | 0.0 | 0.0 | 0.00 | 0.00 | 0.00 | ||
| 20260504022305 | 20 | 155 | 0.0 | 0.0 | 0.00 | 0.00 | 0.00 | ||
| 20260504021807 | 20 | 155 | 0.0 | 0.0 | 0.00 | 0.00 | 0.00 | ||
| 20260504021308 | 20 | 210 | 0.0 | 0.0 | 0.00 | 0.00 | 0.00 | ||
| 20260504020810 | 20 | 210 | 0.0 | 0.0 | 0.00 | 0.00 | 0.00 | ||
| 20260504020311 | 21 | 210 | 0.0 | 0.0 | 0.00 | 0.00 | 0.00 | ||
| 20260504015813 | 21 | 210 | 0.0 | 0.0 | 0.00 | 0.00 | 0.00 | ||
| 20260504015314 | 21 | 210 | 0.0 | 0.0 | 0.00 | 0.00 | 0.00 | ||
| 20260504014816 | 21 | 210 | 0.0 | 0.0 | 0.00 | 0.00 | 0.00 | ||
| 20260504014318 | 21 | 210 | 0.0 | 0.0 | 0.00 | 0.00 | 0.00 | ||
| 20260504013819 | 22 | 210 | 0.0 | 0.0 | 0.00 | 0.00 | 0.00 | ||
| 20260504013321 | 22 | 210 | 0.0 | 0.0 | 0.00 | 0.00 | 0.00 | ||
| 20260504012822 | 22 | 210 | 0.0 | 0.0 | 0.00 | 0.00 | 0.00 | ||
| 20260504012324 | 22 | 210 | 0.0 | 0.0 | 0.00 | 0.00 | 0.00 | ||
| 20260504011825 | 22 | 210 | 0.0 | 0.0 | 0.00 | 0.00 | 0.00 | ||
| 20260504011327 | 22 | 210 | 0.0 | 0.0 | 0.00 | 0.00 | 0.00 | ||
| 20260504010330 | 23 | 210 | 0.0 | 0.0 | 0.00 | 0.00 | 0.00 | ||
| 20260504005832 | 23 | 210 | 0.0 | 0.0 | 0.00 | 0.00 | 0.00 | ||
| 20260504005333 | 23 | 210 | 0.0 | 0.0 | 0.00 | 0.00 | 0.00 | ||
| 20260504004835 | 24 | 210 | 0.0 | 0.0 | 0.00 | 0.00 | 0.00 | ||
| 20260504004336 | 24 | 210 | 0.0 | 0.0 | 0.00 | 0.00 | 0.00 | ||
| 20260504003340 | 25 | 210 | 0.0 | 0.0 | 0.00 | 0.00 | 0.00 | ||
| 20260504002841 | 25 | 210 | 0.0 | 0.0 | 0.00 | 0.00 | 0.00 | ||
| 20260504002343 | 25 | 210 | 0.0 | 0.0 | 0.00 | 0.00 | 0.00 | ||
| 20260504001844 | 26 | 210 | 0.0 | 0.0 | 0.00 | 0.00 | 0.00 | ||
| 20260504001346 | 26 | 210 | 0.0 | 0.0 | 0.00 | 0.00 | 0.00 | ||
| 20260504000847 | 25 | 210 | 0.0 | 0.0 | 0.00 | 0.00 | 0.00 | ||
| 20260504000349 | 25 | 210 | 0.0 | 0.0 | 0.00 | 0.00 | 0.00 | ||
| 20260503235851 | 26 | 210 | 0.0 | 0.0 | 0.00 | 0.00 | 0.00 | ||
| 20260503235352 | 26 | 210 | 0.0 | 0.0 | 0.00 | 0.00 | 0.00 | ||
| 20260503234854 | 26 | 210 | 0.0 | 0.0 | 0.00 | 0.00 | 0.00 | ||
| 20260503234355 | 25 | 210 | 0.0 | 0.0 | 0.00 | 0.00 | 0.00 | ||
| 20260503233857 | 26 | 210 | 0.0 | 0.0 | 0.00 | 0.00 | 0.00 | ||
| 20260503233358 | 25 | 210 | 0.0 | 0.0 | 0.00 | 0.00 | 0.00 | ||
| 20260503232900 | 25 | 167 | 0.0 | 0.0 | 0.00 | 0.00 | 0.00 | ||
| 20260503231903 | 26 | 195 | 3.2 | 0.0 | 0.00 | 0.00 | 0.00 | ||
| 20260503231405 | 26 | 176 | 1.6 | 8.0 | 0.00 | 0.00 | 0.00 | ||
| 20260503230906 | 26 | 149 | 0.0 | 0.0 | 0.00 | 0.00 | 0.00 | ||
| 20260503230408 | 26 | 149 | 0.0 | 0.0 | 0.00 | 0.00 | 0.00 | ||
| 20260503225910 | 26 | 149 | 0.0 | 0.0 | 0.00 | 0.00 | 0.00 | ||
| 20260503225411 | 26 | 149 | 0.0 | 0.0 | 0.00 | 0.00 | 0.00 | ||
| 20260503224913 | 26 | 111 | 0.0 | 0.0 | 0.00 | 0.00 | 0.00 | ||
| 20260503224414 | 27 | 111 | 1.6 | 0.0 | 0.00 | 0.00 | 0.00 | ||
| 20260503223916 | 27 | 114 | 0.0 | 0.0 | 0.00 | 0.00 | 0.00 | ||
| 20260503223418 | 27 | 166 | 0.0 | 0.0 | 0.00 | 0.00 | 0.00 | ||
| 20260503222919 | 27 | 131 | 1.6 | 0.0 | 0.00 | 0.00 | 0.00 |